This is the latest recevied weather packets stored in our database for station/object IR3AS. If no packets are shown the sender has not sent any weather packets the latest 10 day(s).
| Time | Temp. | Humidity | Pressure | Rain* | Wind** | Luminosity | Snow |
|---|---|---|---|---|---|---|---|
| 1787744703 | 17.78° C | 69% | 867.7 hPa | 0 mm | - | - | - |
| 1787744403 | 18.33° C | 69% | 867.7 hPa | 0 mm | - | - | - |
| 1787744103 | 18.33° C | 69% | 867.6 hPa | 0 mm | - | - | - |
| 1787743840 | 18.33° C | 68% | 867.6 hPa | 0 mm | - | - | - |
| 1787743803 | 18.33° C | 68% | 867.6 hPa | 0 mm | - | - | - |
| 1787743503 | 18.33° C | 69% | 867.7 hPa | 0 mm | - | - | - |
| 1787743207 | 17.78° C | 69% | 867.6 hPa | 0 mm | - | - | - |
| 1787742903 | 17.78° C | 68% | 867.8 hPa | 0 mm | - | - | - |
| 1787742641 | 17.78° C | 68% | 867.8 hPa | 0 mm | - | - | - |
| 1787742604 | 17.78° C | 68% | 867.8 hPa | 0 mm | - | - | - |
| 1787742309 | 17.78° C | 66% | 867.8 hPa | 0 mm | - | - | - |
| 1787742003 | 18.33° C | 66% | 867.8 hPa | 0 mm | - | - | - |
| 1787741703 | 18.33° C | 67% | 867.7 hPa | 0 mm | - | - | - |
| 1787741403 | 17.78° C | 67% | 868.3 hPa | 0 mm | - | - | - |
| 1787741103 | 17.22° C | 68% | 868.2 hPa | 0 mm | - | - | - |
| 1787740806 | 16.67° C | 69% | 868.2 hPa | 0 mm | - | - | - |
| 1787740503 | 16.11° C | 68% | 867.9 hPa | 0 mm | - | - | - |
| 1787740203 | 16.11° C | 67% | 868.4 hPa | 0 mm | - | - | - |
| 1787739906 | 16.11° C | 67% | 868.6 hPa | 0 mm | - | - | - |
| 1787739605 | 16.11° C | 68% | 868.5 hPa | 0 mm | - | - | - |
| 1787739305 | 16.11° C | 68% | 868.7 hPa | 0 mm | - | - | - |
| 1787739003 | 15.56° C | 68% | 868.9 hPa | 0 mm | - | - | - |
| 1787738703 | 15.56° C | 68% | 868.4 hPa | 0 mm | - | - | - |
| 1787738403 | 15.56° C | 66% | 868.1 hPa | 0 mm | - | - | - |
| 1787738103 | 16.11° C | 66% | 868.1 hPa | 0 mm | - | - | - |
* Rain latest hour (hover to see other rain measurements)
** Current wind speed in m/s (hover to see current wind gust speed)